TimePDT,TemperatureF,Dew PointF,Humidity,Sea Level PressureIn,VisibilityMPH,Wind Direction,Wind SpeedMPH,Gust SpeedMPH,PrecipitationIn,Events,Conditions,WindDirDegrees,DateUTC
12:56 AM,69.1,61.0,75,29.94,10.0,Calm,Calm,-,N/A,,Clear,0,2013-08-16 07:56:00
1:56 AM,68.0,59.0,73,29.93,10.0,Calm,Calm,-,N/A,,Clear,0,2013-08-16 08:56:00
2:56 AM,64.9,60.1,84,29.92,10.0,Calm,Calm,-,N/A,,Clear,0,2013-08-16 09:56:00
3:56 AM,63.0,59.0,87,29.93,10.0,Calm,Calm,-,N/A,,Clear,0,2013-08-16 10:56:00
4:56 AM,62.1,57.9,86,29.93,10.0,Calm,Calm,-,N/A,,Clear,0,2013-08-16 11:56:00
5:56 AM,61.0,57.0,87,29.94,10.0,Calm,Calm,-,N/A,,Clear,0,2013-08-16 12:56:00
6:56 AM,60.1,57.0,90,29.96,10.0,Calm,Calm,-,N/A,,Clear,0,2013-08-16 13:56:00
7:56 AM,64.9,59.0,81,29.97,10.0,Calm,Calm,-,N/A,,Clear,0,2013-08-16 14:56:00
8:56 AM,70.0,60.1,71,29.97,10.0,Calm,Calm,-,N/A,,Clear,0,2013-08-16 15:56:00
9:56 AM,75.0,60.1,60,29.96,10.0,NE,3.5,-,N/A,,Clear,40,2013-08-16 16:56:00
10:56 AM,80.1,61.0,52,29.96,10.0,Variable,3.5,-,N/A,,Clear,0,2013-08-16 17:56:00
11:56 AM,84.9,60.1,43,29.95,10.0,Variable,4.6,-,N/A,,Clear,0,2013-08-16 18:56:00
12:56 PM,90.0,57.9,34,29.93,10.0,ENE,5.8,-,N/A,,Clear,70,2013-08-16 19:56:00
1:56 PM,91.9,59.0,33,29.92,10.0,NNW,10.4,-,0.00,,Clear,340,2013-08-16 20:56:00
2:56 PM,93.0,57.9,31,29.91,10.0,NNW,9.2,-,N/A,,Clear,340,2013-08-16 21:56:00
3:56 PM,91.9,57.0,31,29.91,10.0,SW,5.8,-,N/A,,Clear,230,2013-08-16 22:56:00
4:56 PM,91.9,54.0,27,29.90,10.0,Calm,Calm,-,N/A,,Clear,0,2013-08-16 23:56:00
5:56 PM,88.0,55.0,32,29.91,10.0,North,8.1,-,N/A,,Clear,360,2013-08-17 00:56:00
6:56 PM,86.0,55.9,36,29.92,10.0,Variable,4.6,-,N/A,,Clear,0,2013-08-17 01:56:00
7:56 PM,78.1,55.0,45,29.94,10.0,North,10.4,-,N/A,,Clear,360,2013-08-17 02:56:00
8:56 PM,75.0,48.0,38,29.96,10.0,NNE,9.2,-,N/A,,Clear,20,2013-08-17 03:56:00
9:56 PM,73.0,41.0,31,29.98,10.0,NNE,5.8,-,N/A,,Clear,20,2013-08-17 04:56:00
10:56 PM,68.0,48.0,49,29.98,10.0,Calm,Calm,-,N/A,,Clear,0,2013-08-17 05:56:00
11:56 PM,66.9,46.0,47,29.97,10.0,Calm,Calm,-,N/A,,Clear,0,2013-08-17 06:56:00